Location: Augirein
(42.9320°N, 0.9181°E)
Time: 20:01:12
(UTC+00:00)

Cosmos 1862 - Pass Details

Date: 20 June 2021
Orbit: 536 x 556 km, 82.5° (Epoch: 31 July)

Event Time Altitude Azimuth Distance (km) Brightness Sun altitude
Exits shadow 03:06:56 10° 189° (S) 1,822 5.5 -10.7°
Maximum altitude 03:10:57 84° 277° (W) 565 3.3 -10.2°
Drops below altitude 10° 03:15:03 10° 7° (N) 1,850 6.8 -9.6°
Sets 03:17:14 0° 8° (N) 2,750 7.8 -9.3°
